ETH835 HAAB-FYWH

Flight info

Callsign ETH835
Flight time 4h 53m
Altitude 38000
Route SHALA2A SHALA UM308 RUDOL UN554 AKUMU UT146 MV UR784 LUB UQ83 IBKIN UM437 VEDRY
Aircraft A359/H-SPCMNB2ABCDEFGHIJLMNOP/LB1D1

Departure

Time 2026-04-26 02:21
Airport Addis Ababa Bole International Airport (HAAB)

Arrival

Time 2026-04-26 07:14
Airport Hosea Kutako International Airport (FYWH)
Time Latitude Longitude Altitude Speed Heading
2026-04-26 01:45 8.97967 38.79345 7623 ft 0 kts 165°
2026-04-26 02:10 8.97976 38.79343 7623 ft 4 kts 160°
2026-04-26 02:10 8.98001 38.79334 7626 ft 4 kts 164°
2026-04-26 02:10 8.98024 38.79328 7629 ft 4 kts 147°
2026-04-26 02:11 8.98037 38.79315 7625 ft 4 kts 116°
2026-04-26 02:11 8.98043 38.79296 7623 ft 4 kts 77°
2026-04-26 02:11 8.98035 38.79271 7629 ft 3 kts 73°
2026-04-26 02:11 8.98034 38.79268 7628 ft 0 kts 74°
2026-04-26 02:14 8.98043 38.79308 7626 ft 15 kts 76°
2026-04-26 02:14 8.98090 38.79467 7623 ft 32 kts 72°
2026-04-26 02:14 8.98152 38.79656 7623 ft 27 kts 72°
2026-04-26 02:15 8.98100 38.79765 7623 ft 12 kts 162°
2026-04-26 02:15 8.98027 38.79786 7624 ft 12 kts 165°
2026-04-26 02:15 8.97926 38.79815 7624 ft 18 kts 162°
2026-04-26 02:15 8.97874 38.79866 7624 ft 3 kts 97°
2026-04-26 02:16 8.97880 38.79884 7624 ft 5 kts 77°
2026-04-26 02:16 8.97899 38.79958 7624 ft 18 kts 75°
2026-04-26 02:16 8.97934 38.80082 7624 ft 18 kts 74°
2026-04-26 02:16 8.97966 38.80199 7625 ft 16 kts 74°
2026-04-26 02:17 8.97998 38.80303 7625 ft 15 kts 72°
2026-04-26 02:17 8.98029 38.80406 7624 ft 15 kts 73°
2026-04-26 02:17 8.98072 38.80545 7622 ft 24 kts 72°
2026-04-26 02:17 8.98129 38.80728 7621 ft 29 kts 73°
2026-04-26 02:18 8.98185 38.80918 7621 ft 27 kts 73°
2026-04-26 02:18 8.98237 38.81096 7621 ft 26 kts 73°
2026-04-26 02:18 8.98286 38.81264 7620 ft 24 kts 70°
2026-04-26 02:18 8.98368 38.81391 7621 ft 16 kts 71°
2026-04-26 02:19 8.98371 38.81408 7621 ft 0 kts 89°
2026-04-26 02:19 8.98365 38.81413 7620 ft 1 kts 134°
2026-04-26 02:19 8.98350 38.81412 7620 ft 2 kts 192°
2026-04-26 02:19 8.98340 38.81397 7620 ft 7 kts 234°
2026-04-26 02:20 8.98302 38.81315 7620 ft 18 kts 251°
2026-04-26 02:20 8.98264 38.81190 7620 ft 31 kts 253°
2026-04-26 02:20 8.98143 38.80768 7621 ft 93 kts 254°
2026-04-26 02:20 8.97905 38.79953 7624 ft 147 kts 254°
2026-04-26 02:21 8.97565 38.78796 7646 ft 193 kts 254°
2026-04-26 02:21 8.97182 38.77526 8363 ft 188 kts 254°
2026-04-26 02:21 8.96786 38.76245 8899 ft 197 kts 252°
2026-04-26 02:21 8.95893 38.75169 8873 ft 210 kts 212°
2026-04-26 02:22 8.94454 38.74872 8890 ft 220 kts 173°
2026-04-26 02:22 8.92973 38.75409 8939 ft 232 kts 152°
2026-04-26 02:22 8.91435 38.75981 9263 ft 239 kts 163°
2026-04-26 02:22 8.89771 38.76224 9626 ft 245 kts 174°
2026-04-26 02:23 8.88053 38.76231 10070 ft 249 kts 179°
2026-04-26 02:23 8.86333 38.76115 10417 ft 253 kts 182°
2026-04-26 02:23 8.84550 38.75928 10792 ft 256 kts 184°
2026-04-26 02:23 8.82801 38.75707 11162 ft 258 kts 185°
2026-04-26 02:24 8.81033 38.75406 11532 ft 261 kts 190°
2026-04-26 02:24 8.79239 38.74895 11736 ft 273 kts 195°
2026-04-26 02:24 8.77383 38.74298 11888 ft 286 kts 195°
2026-04-26 02:24 8.75443 38.73667 12074 ft 299 kts 195°
2026-04-26 02:25 8.73427 38.73016 12236 ft 311 kts 196°
2026-04-26 02:25 8.71323 38.72340 12428 ft 323 kts 196°
2026-04-26 02:25 8.69147 38.71643 12614 ft 334 kts 196°
2026-04-26 02:25 8.66898 38.70923 12792 ft 345 kts 196°
2026-04-26 02:26 8.64559 38.70255 12951 ft 354 kts 192°
2026-04-26 02:26 8.62127 38.69673 13107 ft 364 kts 191°
2026-04-26 02:26 8.59631 38.69066 13258 ft 374 kts 193°
2026-04-26 02:26 8.57113 38.68302 13415 ft 383 kts 196°
2026-04-26 02:27 8.54550 38.67461 13569 ft 391 kts 197°
2026-04-26 02:27 8.51929 38.66627 13702 ft 399 kts 195°
2026-04-26 02:27 8.49250 38.65837 13936 ft 403 kts 195°
2026-04-26 02:27 8.46545 38.65054 14220 ft 406 kts 195°
2026-04-26 02:28 8.43823 38.64264 14496 ft 408 kts 195°
2026-04-26 02:28 8.41088 38.63468 14773 ft 410 kts 195°
2026-04-26 02:28 8.38343 38.62669 15063 ft 412 kts 194°
2026-04-26 02:28 8.35584 38.61866 15331 ft 414 kts 194°
2026-04-26 02:29 8.32809 38.61057 15604 ft 416 kts 194°
2026-04-26 02:29 8.30020 38.60245 15883 ft 418 kts 194°
2026-04-26 02:29 8.27223 38.59429 16159 ft 420 kts 194°
2026-04-26 02:29 8.24418 38.58611 16451 ft 421 kts 194°
2026-04-26 02:30 8.21593 38.57791 16703 ft 423 kts 194°
2026-04-26 02:30 8.18757 38.56967 17003 ft 425 kts 194°
2026-04-26 02:30 8.15910 38.56139 17274 ft 426 kts 194°
2026-04-26 02:30 8.13058 38.55307 17554 ft 428 kts 194°
2026-04-26 02:31 8.10188 38.54470 17826 ft 430 kts 194°
2026-04-26 02:31 8.07316 38.53632 18082 ft 431 kts 194°
2026-04-26 02:31 8.04422 38.52790 18363 ft 433 kts 194°
2026-04-26 02:31 8.01530 38.51948 18605 ft 434 kts 194°
2026-04-26 02:32 7.98620 38.51101 18837 ft 435 kts 194°
2026-04-26 02:32 7.95712 38.50255 19063 ft 437 kts 194°
2026-04-26 02:32 7.92781 38.49402 19278 ft 438 kts 194°
2026-04-26 02:32 7.90802 38.48826 19425 ft 439 kts 194°
2026-04-26 02:33 7.86910 38.47694 19726 ft 441 kts 194°
2026-04-26 02:33 7.84954 38.47125 19867 ft 442 kts 194°
2026-04-26 02:33 7.82000 38.46266 20086 ft 443 kts 194°
2026-04-26 02:33 7.79031 38.45403 20288 ft 444 kts 194°
2026-04-26 02:34 7.76054 38.44537 20491 ft 446 kts 194°
2026-04-26 02:34 7.73066 38.43669 20712 ft 447 kts 194°
2026-04-26 02:34 7.70073 38.42799 20906 ft 448 kts 194°
2026-04-26 02:34 7.67069 38.41927 21105 ft 450 kts 194°
2026-04-26 02:35 7.64062 38.41053 21306 ft 451 kts 194°
2026-04-26 02:35 7.61040 38.40175 21486 ft 453 kts 194°
2026-04-26 02:35 7.58003 38.39293 21695 ft 454 kts 194°
2026-04-26 02:35 7.54961 38.38410 21894 ft 455 kts 194°
2026-04-26 02:36 7.51913 38.37525 22097 ft 457 kts 194°
2026-04-26 02:36 7.48859 38.36638 22287 ft 458 kts 194°
2026-04-26 02:36 7.45791 38.35752 22482 ft 459 kts 194°
2026-04-26 02:36 7.42705 38.34894 22671 ft 460 kts 193°
2026-04-26 02:37 7.39609 38.34060 22832 ft 462 kts 193°
2026-04-26 02:37 7.36493 38.33230 23022 ft 463 kts 193°
2026-04-26 02:37 7.33376 38.32399 23184 ft 464 kts 193°
2026-04-26 02:37 7.30251 38.31561 23354 ft 466 kts 193°
2026-04-26 02:38 7.27108 38.30714 23519 ft 467 kts 193°
2026-04-26 02:38 7.23964 38.29863 23684 ft 468 kts 193°
2026-04-26 02:38 7.20821 38.29009 23831 ft 469 kts 193°
2026-04-26 02:38 7.17663 38.28151 23968 ft 470 kts 193°
2026-04-26 02:39 7.14499 38.27291 24108 ft 471 kts 193°
2026-04-26 02:39 7.11372 38.26442 24247 ft 472 kts 193°
2026-04-26 02:39 7.08200 38.25580 24393 ft 473 kts 193°
2026-04-26 02:39 7.05020 38.24717 24525 ft 474 kts 193°
2026-04-26 02:40 7.01830 38.23851 24671 ft 475 kts 193°
2026-04-26 02:40 6.98640 38.22986 24797 ft 476 kts 193°
2026-04-26 02:40 6.95444 38.22119 24918 ft 477 kts 193°
2026-04-26 02:40 6.92240 38.21251 25056 ft 477 kts 193°
2026-04-26 02:41 6.89032 38.20381 25189 ft 478 kts 193°
2026-04-26 02:41 6.85812 38.19508 25313 ft 479 kts 193°
2026-04-26 02:41 6.82594 38.18635 25456 ft 480 kts 193°
2026-04-26 02:41 6.79365 38.17760 25595 ft 480 kts 193°
2026-04-26 02:42 6.76141 38.16886 25707 ft 481 kts 193°
2026-04-26 02:42 6.72898 38.16008 25839 ft 482 kts 193°
2026-04-26 02:42 6.69654 38.15129 25958 ft 483 kts 193°
2026-04-26 02:42 6.66407 38.14249 26091 ft 484 kts 193°
2026-04-26 02:43 6.59887 38.12484 26336 ft 486 kts 193°
2026-04-26 02:43 6.56623 38.11601 26475 ft 487 kts 194°
2026-04-26 02:43 6.53350 38.10715 26592 ft 487 kts 194°
2026-04-26 02:44 6.50071 38.09829 26724 ft 488 kts 194°
2026-04-26 02:44 6.46791 38.08938 26847 ft 489 kts 194°
2026-04-26 02:44 6.43499 38.08038 26968 ft 490 kts 194°
2026-04-26 02:44 6.40208 38.07137 27096 ft 491 kts 194°
2026-04-26 02:45 6.36910 38.06235 27223 ft 492 kts 194°
2026-04-26 02:45 6.33609 38.05333 27342 ft 493 kts 194°
2026-04-26 02:45 6.30291 38.04428 27466 ft 494 kts 194°
2026-04-26 02:45 6.26976 38.03525 27607 ft 494 kts 194°
2026-04-26 02:46 6.23659 38.02620 27738 ft 495 kts 194°
2026-04-26 02:46 6.20327 38.01713 27849 ft 496 kts 194°
2026-04-26 02:46 6.16998 38.00806 27982 ft 496 kts 194°
2026-04-26 02:46 6.13661 37.99897 28100 ft 497 kts 194°
2026-04-26 02:47 6.10321 37.98988 28216 ft 498 kts 194°
2026-04-26 02:47 6.06975 37.98077 28321 ft 499 kts 194°
2026-04-26 02:47 6.03666 37.97176 28433 ft 500 kts 194°
2026-04-26 02:47 6.00262 37.96250 28543 ft 501 kts 194°
2026-04-26 02:48 5.96941 37.95346 28647 ft 501 kts 194°
2026-04-26 02:48 5.93575 37.94430 28767 ft 502 kts 194°
2026-04-26 02:48 5.90196 37.93510 28879 ft 503 kts 194°
2026-04-26 02:48 5.86817 37.92591 28987 ft 504 kts 194°
2026-04-26 02:49 5.83436 37.91671 29093 ft 504 kts 194°
2026-04-26 02:49 5.80049 37.90750 29201 ft 505 kts 194°
2026-04-26 02:49 5.76651 37.89826 29304 ft 506 kts 194°
2026-04-26 02:49 5.73251 37.88902 29404 ft 507 kts 194°
2026-04-26 02:50 5.66422 37.87045 29593 ft 509 kts 194°
2026-04-26 02:50 5.63005 37.86116 29702 ft 510 kts 194°
2026-04-26 02:50 5.59577 37.85184 29822 ft 510 kts 194°
2026-04-26 02:51 5.56154 37.84254 29939 ft 511 kts 194°
2026-04-26 02:51 5.52719 37.83321 30037 ft 511 kts 194°
2026-04-26 02:51 5.45838 37.81452 30221 ft 513 kts 194°
2026-04-26 02:52 5.38941 37.79579 30384 ft 514 kts 194°
2026-04-26 02:52 5.32021 37.77700 30548 ft 516 kts 194°
2026-04-26 02:53 5.28556 37.76759 30682 ft 515 kts 194°
2026-04-26 02:53 5.25102 37.75821 30802 ft 515 kts 194°
2026-04-26 02:53 5.21636 37.74880 30922 ft 515 kts 194°
2026-04-26 02:53 5.18174 37.73940 31053 ft 515 kts 194°
2026-04-26 02:54 5.14719 37.73003 31178 ft 515 kts 194°
2026-04-26 02:54 5.11257 37.72063 31318 ft 515 kts 194°
2026-04-26 02:54 5.07799 37.71125 31450 ft 515 kts 194°
2026-04-26 02:54 5.04343 37.70188 31596 ft 515 kts 194°
2026-04-26 02:55 5.00888 37.69250 31711 ft 515 kts 194°
2026-04-26 02:55 4.97428 37.68312 31874 ft 515 kts 194°
2026-04-26 02:55 4.93969 37.67374 32013 ft 514 kts 194°
2026-04-26 02:55 4.90522 37.66439 32146 ft 514 kts 194°
2026-04-26 02:56 4.87065 37.65502 32296 ft 514 kts 194°
2026-04-26 02:56 4.83619 37.64568 32428 ft 514 kts 194°
2026-04-26 02:56 4.80164 37.63631 32576 ft 514 kts 194°
2026-04-26 02:56 4.76722 37.62698 32719 ft 513 kts 194°
2026-04-26 02:57 4.73272 37.61763 32878 ft 513 kts 194°
2026-04-26 02:57 4.69825 37.60829 33017 ft 513 kts 194°
2026-04-26 02:57 4.66380 37.59895 33169 ft 513 kts 194°
2026-04-26 02:57 4.62938 37.58963 33347 ft 512 kts 194°
2026-04-26 02:58 4.59555 37.58046 33516 ft 511 kts 194°
2026-04-26 02:58 4.56116 37.57115 33688 ft 511 kts 194°
2026-04-26 02:58 4.52683 37.56185 33850 ft 511 kts 194°
2026-04-26 02:58 4.49252 37.55256 34023 ft 510 kts 194°
2026-04-26 02:59 4.45828 37.54328 34180 ft 510 kts 194°
2026-04-26 02:59 4.42401 37.53401 34336 ft 510 kts 194°
2026-04-26 02:59 4.38975 37.52473 34495 ft 509 kts 194°
2026-04-26 02:59 4.35563 37.51549 34664 ft 509 kts 194°
2026-04-26 03:00 4.32142 37.50623 34844 ft 508 kts 194°
2026-04-26 03:00 4.28733 37.49701 35029 ft 507 kts 194°
2026-04-26 03:00 4.25333 37.48781 35210 ft 506 kts 194°
2026-04-26 03:00 4.21935 37.47861 35385 ft 506 kts 194°
2026-04-26 03:01 4.18541 37.46942 35562 ft 505 kts 194°
2026-04-26 03:01 4.15153 37.46025 35735 ft 504 kts 194°
2026-04-26 03:01 4.11769 37.45110 35900 ft 504 kts 194°
2026-04-26 03:01 4.08380 37.44193 36080 ft 503 kts 194°
2026-04-26 03:02 4.05003 37.43280 36256 ft 503 kts 193°
2026-04-26 03:02 4.01656 37.42289 36380 ft 503 kts 198°
2026-04-26 03:02 3.98444 37.40886 36531 ft 505 kts 207°
2026-04-26 03:02 3.95424 37.39101 36696 ft 504 kts 211°
2026-04-26 03:03 3.92474 37.37206 36863 ft 504 kts 212°
2026-04-26 03:03 3.89547 37.35259 37022 ft 504 kts 213°
2026-04-26 03:03 3.86639 37.33301 37172 ft 504 kts 213°
2026-04-26 03:03 3.83736 37.31346 37327 ft 503 kts 213°
2026-04-26 03:04 3.80824 37.29395 37484 ft 503 kts 212°
2026-04-26 03:04 3.77912 37.27455 37648 ft 502 kts 212°
2026-04-26 03:04 3.75000 37.25524 37780 ft 502 kts 212°
2026-04-26 03:04 3.72088 37.23598 37919 ft 502 kts 212°
2026-04-26 03:05 3.66224 37.19731 37936 ft 507 kts 212°
2026-04-26 03:05 3.60326 37.15837 37936 ft 507 kts 212°
2026-04-26 03:06 3.54441 37.11944 37932 ft 507 kts 212°
2026-04-26 03:06 3.48552 37.08052 37936 ft 508 kts 212°
2026-04-26 03:07 3.42654 37.04155 37932 ft 508 kts 212°
2026-04-26 03:07 3.36747 37.00254 37931 ft 508 kts 212°
2026-04-26 03:08 3.30841 36.96355 37930 ft 509 kts 212°
2026-04-26 03:08 3.24935 36.92455 37932 ft 509 kts 212°
2026-04-26 03:09 3.19064 36.88579 37934 ft 509 kts 212°
2026-04-26 03:09 3.13162 36.84684 37932 ft 509 kts 212°
2026-04-26 03:10 3.07248 36.80780 37935 ft 509 kts 212°
2026-04-26 03:10 3.01337 36.76880 37932 ft 509 kts 212°
2026-04-26 03:11 2.95430 36.72982 37930 ft 509 kts 212°
2026-04-26 03:11 2.89521 36.69084 37931 ft 509 kts 212°
2026-04-26 03:12 2.83612 36.65186 37930 ft 508 kts 212°
2026-04-26 03:12 2.77710 36.61294 37927 ft 508 kts 212°
2026-04-26 03:13 2.71804 36.57398 37929 ft 508 kts 212°
2026-04-26 03:13 2.65892 36.53501 37931 ft 508 kts 212°
2026-04-26 03:14 2.59984 36.49605 37931 ft 509 kts 212°
2026-04-26 03:14 2.54118 36.45737 37931 ft 509 kts 212°
2026-04-26 03:15 2.48211 36.41844 37935 ft 509 kts 212°
2026-04-26 03:15 2.42305 36.37951 37937 ft 509 kts 212°
2026-04-26 03:16 2.36388 36.34052 37942 ft 509 kts 212°
2026-04-26 03:16 2.30476 36.30156 37943 ft 509 kts 212°
2026-04-26 03:17 2.24570 36.26265 37940 ft 509 kts 212°
2026-04-26 03:17 2.18661 36.22373 37948 ft 509 kts 212°
2026-04-26 03:18 2.12750 36.18478 37945 ft 509 kts 212°
2026-04-26 03:18 2.06842 36.14586 37949 ft 509 kts 212°
2026-04-26 03:19 2.00933 36.10695 37947 ft 509 kts 212°
2026-04-26 03:19 1.95023 36.06802 37955 ft 508 kts 212°
2026-04-26 03:20 1.89120 36.02915 37951 ft 508 kts 212°
2026-04-26 03:20 1.83213 35.99026 37962 ft 508 kts 212°
2026-04-26 03:21 1.77316 35.95143 37963 ft 508 kts 212°
2026-04-26 03:21 1.72407 35.91910 37971 ft 508 kts 212°
2026-04-26 03:22 1.66512 35.88030 37976 ft 508 kts 212°
2026-04-26 03:22 1.60616 35.84149 37986 ft 507 kts 212°
2026-04-26 03:23 1.54715 35.80266 37995 ft 507 kts 213°
2026-04-26 03:23 1.48820 35.76383 38009 ft 508 kts 213°
2026-04-26 03:24 1.42924 35.72500 38016 ft 508 kts 213°
2026-04-26 03:24 1.37022 35.68615 38031 ft 508 kts 213°
2026-04-26 03:25 1.31126 35.64734 38035 ft 508 kts 213°
2026-04-26 03:25 1.25223 35.60849 38051 ft 508 kts 213°
2026-04-26 03:26 1.19327 35.56968 38064 ft 507 kts 213°
2026-04-26 03:26 1.13434 35.53090 38068 ft 507 kts 213°
2026-04-26 03:27 1.07539 35.49213 38082 ft 507 kts 213°
2026-04-26 03:27 1.01686 35.45354 38084 ft 507 kts 213°
2026-04-26 03:28 0.95800 35.41472 38085 ft 507 kts 213°
2026-04-26 03:28 0.89902 35.37585 38090 ft 508 kts 213°
2026-04-26 03:29 0.84007 35.33702 38090 ft 508 kts 213°
2026-04-26 03:29 0.78104 35.29814 38088 ft 508 kts 213°
2026-04-26 03:30 0.72205 35.25928 38127 ft 508 kts 213°
2026-04-26 03:30 0.66299 35.22038 38168 ft 509 kts 213°
2026-04-26 03:31 0.60387 35.18145 38202 ft 509 kts 213°
2026-04-26 03:31 0.54475 35.14252 38238 ft 509 kts 213°
2026-04-26 03:32 0.48564 35.10360 38240 ft 509 kts 213°
2026-04-26 03:32 0.42650 35.06466 38226 ft 509 kts 213°
2026-04-26 03:33 0.36744 35.02577 38199 ft 508 kts 213°
2026-04-26 03:33 0.30839 34.98689 38151 ft 508 kts 213°
2026-04-26 03:34 0.24943 34.94807 38098 ft 507 kts 213°
2026-04-26 03:34 0.19051 34.90929 38072 ft 507 kts 213°
2026-04-26 03:35 0.13171 34.87057 38060 ft 506 kts 213°
2026-04-26 03:35 0.07296 34.83189 38061 ft 505 kts 213°
2026-04-26 03:36 0.01431 34.79327 38055 ft 505 kts 213°
2026-04-26 03:36 -0.04428 34.75470 38052 ft 504 kts 213°
2026-04-26 03:37 -0.10245 34.71637 38043 ft 504 kts 213°
2026-04-26 03:37 -0.15835 34.67431 38042 ft 503 kts 219°
2026-04-26 03:38 -0.21233 34.62982 38041 ft 503 kts 220°
2026-04-26 03:38 -0.26670 34.58570 38035 ft 503 kts 219°
2026-04-26 03:39 -0.32160 34.54216 38034 ft 504 kts 218°
2026-04-26 03:39 -0.37667 34.49883 38034 ft 504 kts 218°
2026-04-26 03:40 -0.43260 34.45655 38033 ft 505 kts 216°
2026-04-26 03:40 -0.49018 34.41640 38030 ft 505 kts 215°
2026-04-26 03:41 -0.54789 34.37625 38036 ft 506 kts 215°
2026-04-26 03:41 -0.60336 34.33307 38032 ft 506 kts 221°
2026-04-26 03:42 -0.65643 34.28684 38032 ft 507 kts 220°
2026-04-26 03:42 -0.71233 34.24378 38030 ft 508 kts 216°
2026-04-26 03:43 -0.76965 34.20241 38034 ft 508 kts 216°
2026-04-26 03:43 -0.82689 34.16083 38023 ft 508 kts 217°
2026-04-26 03:44 -0.88372 34.11896 38025 ft 507 kts 217°
2026-04-26 03:44 -0.94040 34.07697 38027 ft 507 kts 217°
2026-04-26 03:45 -0.99701 34.03501 38027 ft 507 kts 217°
2026-04-26 03:45 -1.05265 33.99182 38024 ft 506 kts 221°
2026-04-26 03:46 -1.10541 33.94608 38022 ft 505 kts 221°
2026-04-26 03:47 -1.18856 33.88065 38038 ft 505 kts 218°
2026-04-26 03:47 -1.24420 33.83858 38065 ft 504 kts 218°
2026-04-26 03:48 -1.29994 33.79604 38086 ft 504 kts 218°
2026-04-26 03:48 -1.35580 33.75316 38100 ft 503 kts 218°
2026-04-26 03:49 -1.41098 33.71093 38120 ft 503 kts 218°
2026-04-26 03:49 -1.46652 33.66844 38110 ft 503 kts 218°
2026-04-26 03:50 -1.52207 33.62595 38105 ft 503 kts 218°
2026-04-26 03:50 -1.57757 33.58348 38084 ft 503 kts 218°
2026-04-26 03:51 -1.63313 33.54097 38071 ft 503 kts 218°
2026-04-26 03:51 -1.68882 33.49870 38051 ft 503 kts 217°
2026-04-26 03:52 -1.74491 33.45689 38053 ft 503 kts 217°
2026-04-26 03:52 -1.80102 33.41508 38052 ft 503 kts 217°
2026-04-26 03:53 -1.85704 33.37318 38056 ft 503 kts 217°
2026-04-26 03:53 -1.91309 33.33118 38057 ft 503 kts 217°
2026-04-26 03:54 -1.96907 33.28923 38060 ft 503 kts 217°
2026-04-26 03:54 -2.02499 33.24732 38061 ft 503 kts 217°
2026-04-26 03:55 -2.08098 33.20536 38065 ft 503 kts 217°
2026-04-26 03:55 -2.13663 33.16366 38065 ft 503 kts 217°
2026-04-26 03:56 -2.19266 33.12166 38077 ft 503 kts 217°
2026-04-26 03:56 -2.24905 33.07939 38082 ft 504 kts 217°
2026-04-26 03:57 -2.30473 33.03765 38097 ft 503 kts 217°
2026-04-26 03:57 -2.36079 32.99563 38104 ft 503 kts 217°
2026-04-26 03:58 -2.41683 32.95361 38099 ft 504 kts 217°
2026-04-26 03:58 -2.47338 32.91223 38104 ft 504 kts 214°
2026-04-26 03:59 -2.53291 32.87510 38106 ft 504 kts 211°
2026-04-26 03:59 -2.59301 32.83893 38099 ft 504 kts 212°
2026-04-26 04:00 -2.65263 32.80213 38090 ft 503 kts 212°
2026-04-26 04:00 -2.71184 32.76494 38094 ft 502 kts 212°
2026-04-26 04:01 -2.77115 32.72807 38088 ft 501 kts 211°
2026-04-26 04:01 -2.83151 32.69320 38093 ft 500 kts 210°
2026-04-26 04:02 -2.89191 32.65878 38085 ft 500 kts 210°
2026-04-26 04:02 -2.95214 32.62407 38085 ft 499 kts 210°
2026-04-26 04:03 -3.01174 32.58946 38092 ft 499 kts 210°
2026-04-26 04:03 -3.07170 32.55459 38083 ft 498 kts 210°
2026-04-26 04:04 -3.13164 32.51973 38089 ft 498 kts 210°
2026-04-26 04:04 -3.19157 32.48489 38086 ft 498 kts 210°
2026-04-26 04:05 -3.25145 32.45008 38088 ft 498 kts 210°
2026-04-26 04:05 -3.31128 32.41529 38086 ft 498 kts 210°
2026-04-26 04:06 -3.37114 32.38048 38080 ft 497 kts 210°
2026-04-26 04:06 -3.43093 32.34570 38078 ft 497 kts 210°
2026-04-26 04:07 -3.49066 32.31096 38083 ft 497 kts 210°
2026-04-26 04:07 -3.55043 32.27619 38077 ft 496 kts 209°
2026-04-26 04:08 -3.61008 32.24148 38082 ft 496 kts 209°
2026-04-26 04:08 -3.66964 32.20682 38088 ft 496 kts 209°
2026-04-26 04:09 -3.72926 32.17212 38084 ft 495 kts 209°
2026-04-26 04:09 -3.78883 32.13744 38085 ft 495 kts 209°
2026-04-26 04:10 -3.84833 32.10280 38080 ft 495 kts 209°
2026-04-26 04:10 -3.89776 32.07401 38084 ft 494 kts 209°
2026-04-26 04:11 -3.95720 32.03939 38085 ft 494 kts 209°
2026-04-26 04:11 -4.01653 32.00483 38088 ft 494 kts 209°
2026-04-26 04:12 -4.07590 31.97025 38082 ft 494 kts 209°
2026-04-26 04:12 -4.13528 31.93565 38083 ft 494 kts 208°
2026-04-26 04:13 -4.19467 31.90103 38087 ft 494 kts 208°
2026-04-26 04:13 -4.25406 31.86641 38088 ft 494 kts 208°
2026-04-26 04:14 -4.31335 31.83183 38094 ft 494 kts 208°
2026-04-26 04:14 -4.37276 31.79719 38093 ft 493 kts 208°
2026-04-26 04:15 -4.43207 31.76260 38097 ft 493 kts 208°
2026-04-26 04:15 -4.49129 31.72805 38097 ft 493 kts 208°
2026-04-26 04:16 -4.55055 31.69348 38092 ft 492 kts 208°
2026-04-26 04:16 -4.60932 31.65918 38098 ft 492 kts 208°
2026-04-26 04:17 -4.66842 31.62468 38094 ft 492 kts 208°
2026-04-26 04:17 -4.72747 31.59021 38096 ft 491 kts 208°
2026-04-26 04:18 -4.78648 31.55576 38095 ft 491 kts 208°
2026-04-26 04:18 -4.84547 31.52131 38103 ft 491 kts 208°
2026-04-26 04:19 -4.90440 31.48688 38099 ft 490 kts 208°
2026-04-26 04:19 -4.96340 31.45241 38107 ft 490 kts 208°
2026-04-26 04:20 -5.02232 31.41798 38099 ft 490 kts 208°
2026-04-26 04:20 -5.08119 31.38357 38106 ft 490 kts 208°
2026-04-26 04:21 -5.14004 31.34916 38096 ft 490 kts 208°
2026-04-26 04:21 -5.19889 31.31475 38098 ft 490 kts 208°
2026-04-26 04:22 -5.25774 31.28033 38100 ft 490 kts 208°
2026-04-26 04:22 -5.31650 31.24595 38095 ft 489 kts 208°
2026-04-26 04:23 -5.37542 31.21147 38101 ft 490 kts 208°
2026-04-26 04:23 -5.43422 31.17705 38098 ft 490 kts 208°
2026-04-26 04:24 -5.49308 31.14259 38098 ft 490 kts 208°
2026-04-26 04:24 -5.55192 31.10814 38103 ft 490 kts 208°
2026-04-26 04:25 -5.61043 31.07386 38101 ft 490 kts 208°
2026-04-26 04:25 -5.66940 31.03932 38102 ft 491 kts 208°
2026-04-26 04:26 -5.72836 31.00477 38106 ft 491 kts 208°
2026-04-26 04:26 -5.78733 30.97021 38101 ft 491 kts 208°
2026-04-26 04:27 -5.84634 30.93561 38105 ft 491 kts 208°
2026-04-26 04:27 -5.90549 30.90093 38104 ft 492 kts 208°
2026-04-26 04:28 -5.96453 30.86630 38103 ft 492 kts 208°
2026-04-26 04:28 -6.02366 30.83160 38099 ft 492 kts 208°
2026-04-26 04:29 -6.08276 30.79691 38101 ft 492 kts 208°
2026-04-26 04:29 -6.14185 30.76223 38096 ft 492 kts 208°
2026-04-26 04:30 -6.20099 30.72750 38093 ft 492 kts 208°
2026-04-26 04:30 -6.26010 30.69279 38087 ft 492 kts 208°
2026-04-26 04:31 -6.31918 30.65808 38082 ft 492 kts 208°
2026-04-26 04:31 -6.37828 30.62335 38077 ft 492 kts 208°
2026-04-26 04:32 -6.43703 30.58882 38068 ft 492 kts 208°
2026-04-26 04:32 -6.49614 30.55407 38058 ft 492 kts 208°
2026-04-26 04:33 -6.55521 30.51932 38043 ft 492 kts 208°
2026-04-26 04:33 -6.61427 30.48464 38034 ft 490 kts 208°
2026-04-26 04:34 -6.67307 30.45000 38027 ft 490 kts 208°
2026-04-26 04:34 -6.73189 30.41536 38020 ft 490 kts 208°
2026-04-26 04:35 -6.79077 30.38069 38015 ft 490 kts 208°
2026-04-26 04:35 -6.84954 30.34607 38002 ft 490 kts 208°
2026-04-26 04:36 -6.90836 30.31142 38004 ft 490 kts 208°
2026-04-26 04:36 -6.96721 30.27674 38005 ft 490 kts 208°
2026-04-26 04:37 -7.02601 30.24209 38004 ft 490 kts 208°
2026-04-26 04:37 -7.08480 30.20742 38010 ft 490 kts 208°
2026-04-26 04:38 -7.14368 30.17270 38017 ft 490 kts 208°
2026-04-26 04:38 -7.20244 30.13803 38023 ft 490 kts 208°
2026-04-26 04:39 -7.26124 30.10332 38034 ft 490 kts 208°
2026-04-26 04:39 -7.31964 30.06884 38044 ft 490 kts 208°
2026-04-26 04:40 -7.37880 30.03391 38058 ft 490 kts 208°
2026-04-26 04:40 -7.43715 29.99947 38069 ft 489 kts 208°
2026-04-26 04:41 -7.49643 29.96475 38083 ft 489 kts 208°
2026-04-26 04:41 -7.55494 29.93053 38090 ft 489 kts 208°
2026-04-26 04:42 -7.61423 29.89583 38099 ft 489 kts 208°
2026-04-26 04:42 -7.67302 29.86141 38098 ft 489 kts 208°
2026-04-26 04:43 -7.73186 29.82694 38102 ft 489 kts 208°
2026-04-26 04:43 -7.79030 29.79269 38103 ft 489 kts 208°
2026-04-26 04:44 -7.84911 29.75822 38101 ft 488 kts 208°
2026-04-26 04:44 -7.90781 29.72380 38101 ft 488 kts 208°
2026-04-26 04:45 -7.96656 29.68934 38096 ft 488 kts 208°
2026-04-26 04:45 -8.02522 29.65492 38096 ft 488 kts 208°
2026-04-26 04:46 -8.08390 29.62048 38091 ft 487 kts 208°
2026-04-26 04:46 -8.14253 29.58606 38086 ft 487 kts 208°
2026-04-26 04:47 -8.20099 29.55144 38081 ft 487 kts 208°
2026-04-26 04:47 -8.25930 29.51660 38078 ft 487 kts 208°
2026-04-26 04:48 -8.34680 29.46446 38073 ft 487 kts 208°
2026-04-26 04:48 -8.40528 29.42996 38070 ft 486 kts 208°
2026-04-26 04:49 -8.46369 29.39555 38065 ft 486 kts 208°
2026-04-26 04:49 -8.52174 29.36130 38061 ft 486 kts 208°
2026-04-26 04:50 -8.58001 29.32688 38058 ft 486 kts 208°
2026-04-26 04:50 -8.63840 29.29237 38056 ft 485 kts 208°
2026-04-26 04:51 -8.69668 29.25790 38056 ft 485 kts 208°
2026-04-26 04:51 -8.75489 29.22347 38053 ft 485 kts 208°
2026-04-26 04:52 -8.81313 29.18901 38055 ft 485 kts 208°
2026-04-26 04:52 -8.87131 29.15456 38056 ft 484 kts 208°
2026-04-26 04:53 -8.92942 29.12016 38058 ft 484 kts 208°
2026-04-26 04:53 -8.98753 29.08573 38058 ft 484 kts 208°
2026-04-26 04:54 -9.04562 29.05131 38060 ft 483 kts 208°
2026-04-26 04:54 -9.10367 29.01690 38060 ft 483 kts 208°
2026-04-26 04:55 -9.16161 28.98240 38060 ft 483 kts 208°
2026-04-26 04:55 -9.21946 28.94785 38066 ft 483 kts 208°
2026-04-26 04:56 -9.27727 28.91330 38064 ft 483 kts 208°
2026-04-26 04:56 -9.33507 28.87878 38068 ft 482 kts 208°
2026-04-26 04:57 -9.39291 28.84422 38065 ft 482 kts 208°
2026-04-26 04:57 -9.45069 28.80968 38070 ft 482 kts 208°
2026-04-26 04:58 -9.49865 28.78100 38069 ft 482 kts 209°
2026-04-26 04:58 -9.56571 28.74089 38072 ft 482 kts 208°
2026-04-26 04:59 -9.62338 28.70637 38073 ft 481 kts 208°
2026-04-26 04:59 -9.67167 28.67747 38076 ft 481 kts 208°
2026-04-26 05:00 -9.72926 28.64298 38075 ft 481 kts 209°
2026-04-26 05:00 -9.79623 28.60285 38077 ft 481 kts 208°
2026-04-26 05:01 -9.84443 28.57396 38078 ft 480 kts 208°
2026-04-26 05:01 -9.90195 28.53947 38084 ft 480 kts 208°
2026-04-26 05:02 -9.95948 28.50496 38081 ft 480 kts 208°
2026-04-26 05:02 -10.01697 28.47046 38082 ft 480 kts 208°
2026-04-26 05:03 -10.07437 28.43599 38084 ft 480 kts 208°
2026-04-26 05:03 -10.13185 28.40147 38084 ft 480 kts 208°
2026-04-26 05:04 -10.18889 28.36720 38089 ft 480 kts 208°
2026-04-26 05:04 -10.24631 28.33268 38090 ft 479 kts 208°
2026-04-26 05:05 -10.30366 28.29820 38098 ft 479 kts 208°
2026-04-26 05:05 -10.36106 28.26366 38104 ft 479 kts 208°
2026-04-26 05:06 -10.41846 28.22912 38103 ft 480 kts 208°
2026-04-26 05:06 -10.47585 28.19455 38105 ft 480 kts 208°
2026-04-26 05:07 -10.53327 28.15996 38106 ft 480 kts 208°
2026-04-26 05:07 -10.59068 28.12537 38107 ft 480 kts 208°
2026-04-26 05:08 -10.64809 28.09075 38110 ft 480 kts 208°
2026-04-26 05:08 -10.70549 28.05612 38109 ft 480 kts 208°
2026-04-26 05:09 -10.76292 28.02147 38106 ft 480 kts 208°
2026-04-26 05:09 -10.82032 27.98681 38108 ft 480 kts 208°
2026-04-26 05:10 -10.87766 27.95218 38108 ft 480 kts 208°
2026-04-26 05:10 -10.93504 27.91750 38108 ft 479 kts 208°
2026-04-26 05:11 -10.99238 27.88275 38110 ft 479 kts 208°
2026-04-26 05:11 -11.04939 27.84757 38111 ft 479 kts 209°
2026-04-26 05:12 -11.10631 27.81229 38109 ft 479 kts 208°
2026-04-26 05:12 -11.16330 27.77705 38112 ft 479 kts 208°
2026-04-26 05:13 -11.22028 27.74187 38118 ft 479 kts 208°
2026-04-26 05:13 -11.27724 27.70670 38117 ft 479 kts 208°
2026-04-26 05:14 -11.33417 27.67154 38119 ft 478 kts 208°
2026-04-26 05:14 -11.39109 27.63635 38123 ft 478 kts 208°
2026-04-26 05:15 -11.44793 27.60119 38125 ft 478 kts 208°
2026-04-26 05:15 -11.50475 27.56604 38125 ft 478 kts 208°
2026-04-26 05:16 -11.56155 27.53088 38128 ft 477 kts 208°
2026-04-26 05:16 -11.61489 27.49027 38127 ft 482 kts 222°
2026-04-26 05:17 -11.66085 27.44020 38127 ft 484 kts 225°
2026-04-26 05:17 -11.70501 27.38905 38129 ft 484 kts 226°
2026-04-26 05:18 -11.74949 27.33745 38127 ft 484 kts 225°
2026-04-26 05:18 -11.79416 27.28607 38128 ft 484 kts 225°
2026-04-26 05:19 -11.83896 27.23476 38129 ft 484 kts 225°
2026-04-26 05:19 -11.88373 27.18349 38131 ft 484 kts 225°
2026-04-26 05:20 -11.92848 27.13219 38132 ft 484 kts 225°
2026-04-26 05:20 -11.97327 27.08080 38134 ft 484 kts 225°
2026-04-26 05:21 -12.01807 27.02951 38135 ft 484 kts 225°
2026-04-26 05:21 -12.06346 26.97886 38135 ft 483 kts 224°
2026-04-26 05:22 -12.10904 26.92836 38135 ft 483 kts 224°
2026-04-26 05:22 -12.15454 26.87775 38136 ft 483 kts 225°
2026-04-26 05:23 -12.19989 26.82715 38139 ft 483 kts 225°
2026-04-26 05:23 -12.24524 26.77646 38138 ft 483 kts 225°
2026-04-26 05:24 -12.29057 26.72577 38140 ft 483 kts 225°
2026-04-26 05:24 -12.33587 26.67511 38136 ft 483 kts 225°
2026-04-26 05:25 -12.38116 26.62443 38138 ft 482 kts 225°
2026-04-26 05:25 -12.42611 26.57410 38136 ft 482 kts 225°
2026-04-26 05:26 -12.47158 26.52314 38138 ft 482 kts 225°
2026-04-26 05:26 -12.51653 26.47275 38139 ft 482 kts 225°
2026-04-26 05:27 -12.56201 26.42175 38138 ft 482 kts 225°
2026-04-26 05:27 -12.60684 26.37144 38134 ft 482 kts 225°
2026-04-26 05:28 -12.65200 26.32073 38138 ft 482 kts 225°
2026-04-26 05:28 -12.69714 26.27002 38134 ft 481 kts 225°
2026-04-26 05:29 -12.74220 26.21936 38137 ft 481 kts 225°
2026-04-26 05:29 -12.78721 26.16846 38134 ft 482 kts 225°
2026-04-26 05:30 -12.83194 26.11744 38134 ft 482 kts 225°
2026-04-26 05:30 -12.87674 26.06633 38133 ft 482 kts 225°
2026-04-26 05:31 -12.92152 26.01531 38132 ft 482 kts 225°
2026-04-26 05:31 -12.96641 25.96416 38131 ft 482 kts 225°
2026-04-26 05:32 -13.01120 25.91309 38127 ft 482 kts 225°
2026-04-26 05:32 -13.05605 25.86193 38130 ft 482 kts 225°
2026-04-26 05:33 -13.10086 25.81078 38128 ft 482 kts 225°
2026-04-26 05:33 -13.14564 25.75962 38126 ft 482 kts 225°
2026-04-26 05:34 -13.19015 25.70875 38123 ft 482 kts 225°
2026-04-26 05:34 -13.23525 25.65718 38122 ft 482 kts 225°
2026-04-26 05:35 -13.27971 25.60630 38122 ft 482 kts 225°
2026-04-26 05:35 -13.32443 25.55510 38119 ft 482 kts 225°
2026-04-26 05:36 -13.36914 25.50388 38117 ft 482 kts 225°
2026-04-26 05:36 -13.41387 25.45260 38123 ft 482 kts 225°
2026-04-26 05:37 -13.45863 25.40133 38122 ft 482 kts 225°
2026-04-26 05:37 -13.50333 25.35004 38122 ft 482 kts 225°
2026-04-26 05:38 -13.54799 25.29872 38119 ft 482 kts 225°
2026-04-26 05:38 -13.59265 25.24740 38123 ft 482 kts 225°
2026-04-26 05:39 -13.63732 25.19605 38120 ft 482 kts 225°
2026-04-26 05:39 -13.68199 25.14467 38120 ft 482 kts 225°
2026-04-26 05:40 -13.72664 25.09328 38122 ft 482 kts 226°
2026-04-26 05:40 -13.77134 25.04180 38127 ft 482 kts 226°
2026-04-26 05:41 -13.81595 24.99039 38123 ft 482 kts 226°
2026-04-26 05:41 -13.86061 24.93889 38125 ft 482 kts 226°
2026-04-26 05:42 -13.90527 24.88737 38127 ft 482 kts 226°
2026-04-26 05:42 -13.94990 24.83583 38127 ft 482 kts 226°
2026-04-26 05:43 -13.99457 24.78422 38131 ft 483 kts 226°
2026-04-26 05:43 -14.03925 24.73258 38131 ft 483 kts 226°
2026-04-26 05:44 -14.08386 24.68097 38129 ft 483 kts 226°
2026-04-26 05:44 -14.12852 24.62928 38127 ft 483 kts 226°
2026-04-26 05:45 -14.17317 24.57758 38126 ft 483 kts 226°
2026-04-26 05:45 -14.21783 24.52582 38130 ft 483 kts 226°
2026-04-26 05:46 -14.26245 24.47406 38124 ft 483 kts 226°
2026-04-26 05:46 -14.29954 24.43103 38123 ft 483 kts 226°
2026-04-26 05:47 -14.35141 24.37080 38123 ft 483 kts 226°
2026-04-26 05:47 -14.39601 24.31898 38122 ft 483 kts 226°
2026-04-26 05:48 -14.43340 24.27550 38125 ft 483 kts 226°
2026-04-26 05:48 -14.47806 24.22356 38118 ft 483 kts 226°
2026-04-26 05:49 -14.54465 24.14601 38116 ft 483 kts 226°
2026-04-26 05:50 -14.58922 24.09406 38122 ft 483 kts 226°
2026-04-26 05:50 -14.63378 24.04208 38116 ft 483 kts 226°
2026-04-26 05:51 -14.67834 23.99008 38115 ft 483 kts 226°
2026-04-26 05:51 -14.72290 23.93805 38121 ft 484 kts 226°
2026-04-26 05:52 -14.76743 23.88600 38114 ft 484 kts 226°
2026-04-26 05:52 -14.81201 23.83387 38114 ft 484 kts 226°
2026-04-26 05:53 -14.85658 23.78173 38114 ft 484 kts 226°
2026-04-26 05:53 -14.90116 23.72952 38114 ft 484 kts 226°
2026-04-26 05:54 -14.94570 23.67733 38114 ft 484 kts 226°
2026-04-26 05:54 -14.99021 23.62515 38111 ft 484 kts 226°
2026-04-26 05:55 -15.03479 23.57284 38114 ft 484 kts 227°
2026-04-26 05:55 -15.07929 23.52059 38114 ft 484 kts 227°
2026-04-26 05:56 -15.12389 23.46819 38114 ft 485 kts 227°
2026-04-26 05:56 -15.16844 23.41581 38113 ft 485 kts 227°
2026-04-26 05:57 -15.21293 23.36346 38116 ft 485 kts 227°
2026-04-26 05:57 -15.25750 23.31097 38115 ft 485 kts 227°
2026-04-26 05:58 -15.30205 23.25849 38118 ft 485 kts 227°
2026-04-26 05:58 -15.34651 23.20608 38119 ft 485 kts 227°
2026-04-26 05:59 -15.39105 23.15348 38118 ft 485 kts 227°
2026-04-26 05:59 -15.43550 23.10096 38120 ft 485 kts 227°
2026-04-26 06:00 -15.48003 23.04832 38119 ft 485 kts 227°
2026-04-26 06:00 -15.52448 22.99572 38118 ft 485 kts 227°
2026-04-26 06:01 -15.56892 22.94311 38127 ft 485 kts 227°
2026-04-26 06:01 -15.61338 22.89043 38121 ft 485 kts 227°
2026-04-26 06:02 -15.65771 22.83834 38120 ft 485 kts 226°
2026-04-26 06:02 -15.70356 22.78704 38123 ft 485 kts 225°
2026-04-26 06:03 -15.74960 22.73599 38126 ft 484 kts 225°
2026-04-26 06:03 -15.79545 22.68473 38131 ft 485 kts 226°
2026-04-26 06:04 -15.84118 22.63332 38128 ft 484 kts 226°
2026-04-26 06:04 -15.88683 22.58190 38130 ft 484 kts 226°
2026-04-26 06:05 -15.93255 22.53040 38134 ft 484 kts 226°
2026-04-26 06:05 -15.97811 22.47902 38133 ft 484 kts 226°
2026-04-26 06:06 -16.02378 22.42749 38127 ft 484 kts 226°
2026-04-26 06:06 -16.06939 22.37598 38133 ft 484 kts 226°
2026-04-26 06:07 -16.11500 22.32446 38137 ft 484 kts 226°
2026-04-26 06:07 -16.16060 22.27290 38138 ft 484 kts 226°
2026-04-26 06:08 -16.20620 22.22131 38135 ft 484 kts 226°
2026-04-26 06:08 -16.25178 22.16970 38136 ft 484 kts 226°
2026-04-26 06:09 -16.29729 22.11812 38139 ft 484 kts 226°
2026-04-26 06:09 -16.34281 22.06649 38137 ft 484 kts 226°
2026-04-26 06:10 -16.38678 22.01326 38138 ft 485 kts 229°
2026-04-26 06:10 -16.42951 21.95901 38137 ft 485 kts 229°
2026-04-26 06:11 -16.47212 21.90529 38132 ft 485 kts 229°
2026-04-26 06:11 -16.51537 21.85143 38135 ft 485 kts 229°
2026-04-26 06:12 -16.56065 21.79946 38135 ft 484 kts 225°
2026-04-26 06:12 -16.60714 21.74851 38135 ft 485 kts 225°
2026-04-26 06:13 -16.65335 21.69731 38136 ft 485 kts 226°
2026-04-26 06:13 -16.69924 21.64578 38136 ft 485 kts 226°
2026-04-26 06:14 -16.74503 21.59412 38138 ft 485 kts 226°
2026-04-26 06:14 -16.79080 21.54242 38140 ft 485 kts 226°
2026-04-26 06:15 -16.83666 21.49063 38140 ft 485 kts 227°
2026-04-26 06:15 -16.88245 21.43889 38142 ft 485 kts 227°
2026-04-26 06:16 -16.92823 21.38713 38146 ft 485 kts 227°
2026-04-26 06:16 -16.97403 21.33531 38145 ft 486 kts 227°
2026-04-26 06:17 -17.01982 21.28344 38144 ft 485 kts 227°
2026-04-26 06:17 -17.06559 21.23156 38146 ft 485 kts 227°
2026-04-26 06:18 -17.11138 21.17963 38148 ft 485 kts 227°
2026-04-26 06:18 -17.15708 21.12775 38149 ft 485 kts 227°
2026-04-26 06:19 -17.20279 21.07582 38148 ft 485 kts 227°
2026-04-26 06:19 -17.24814 21.02427 38153 ft 485 kts 227°
2026-04-26 06:20 -17.29379 20.97233 38153 ft 485 kts 227°
2026-04-26 06:20 -17.33940 20.92036 38154 ft 485 kts 227°
2026-04-26 06:21 -17.38495 20.86825 38158 ft 485 kts 227°
2026-04-26 06:21 -17.43048 20.81613 38156 ft 485 kts 227°
2026-04-26 06:22 -17.47607 20.76396 38156 ft 485 kts 228°
2026-04-26 06:22 -17.52160 20.71180 38156 ft 485 kts 228°
2026-04-26 06:23 -17.56714 20.65960 38158 ft 485 kts 228°
2026-04-26 06:23 -17.61267 20.60738 38154 ft 485 kts 228°
2026-04-26 06:24 -17.65822 20.55509 38159 ft 486 kts 228°
2026-04-26 06:24 -17.70372 20.50281 38159 ft 486 kts 228°
2026-04-26 06:25 -17.74926 20.45043 38158 ft 486 kts 228°
2026-04-26 06:25 -17.79448 20.39840 38161 ft 486 kts 228°
2026-04-26 06:26 -17.84001 20.34596 38161 ft 486 kts 228°
2026-04-26 06:26 -17.88948 20.29784 38163 ft 487 kts 216°
2026-04-26 06:27 -17.94808 20.26193 38161 ft 488 kts 209°
2026-04-26 06:27 -18.00823 20.22885 38163 ft 488 kts 208°
2026-04-26 06:28 -18.06857 20.19595 38163 ft 488 kts 208°
2026-04-26 06:28 -18.12867 20.16280 38162 ft 488 kts 209°
2026-04-26 06:29 -18.18869 20.12943 38166 ft 488 kts 209°
2026-04-26 06:29 -18.24867 20.09601 38166 ft 488 kts 209°
2026-04-26 06:30 -18.30865 20.06258 38169 ft 488 kts 209°
2026-04-26 06:30 -18.36862 20.02915 38168 ft 488 kts 209°
2026-04-26 06:31 -18.42868 19.99565 38172 ft 488 kts 209°
2026-04-26 06:31 -18.48829 19.96238 38172 ft 488 kts 209°
2026-04-26 06:32 -18.54828 19.92886 38168 ft 488 kts 209°
2026-04-26 06:32 -18.60828 19.89530 38176 ft 488 kts 210°
2026-04-26 06:33 -18.66822 19.86176 38180 ft 488 kts 210°
2026-04-26 06:33 -18.72825 19.82817 38177 ft 488 kts 209°
2026-04-26 06:34 -18.78819 19.79458 38176 ft 488 kts 210°
2026-04-26 06:34 -18.84809 19.76094 38173 ft 488 kts 210°
2026-04-26 06:35 -18.90800 19.72728 38176 ft 488 kts 210°
2026-04-26 06:35 -18.96787 19.69363 38179 ft 488 kts 210°
2026-04-26 06:36 -19.02777 19.65993 38181 ft 487 kts 210°
2026-04-26 06:36 -19.08760 19.62625 38183 ft 487 kts 210°
2026-04-26 06:37 -19.13731 19.59825 38183 ft 487 kts 210°
2026-04-26 06:37 -19.19710 19.56454 38185 ft 487 kts 210°
2026-04-26 06:38 -19.25695 19.53077 38184 ft 487 kts 210°
2026-04-26 06:38 -19.31674 19.49700 38185 ft 487 kts 210°
2026-04-26 06:39 -19.37644 19.46326 38184 ft 487 kts 210°
2026-04-26 06:39 -19.43621 19.42944 38185 ft 487 kts 210°
2026-04-26 06:40 -19.49589 19.39565 38189 ft 487 kts 210°
2026-04-26 06:40 -19.55560 19.36183 38185 ft 487 kts 210°
2026-04-26 06:41 -19.61492 19.32818 38196 ft 487 kts 210°
2026-04-26 06:41 -19.67462 19.29430 38193 ft 486 kts 210°
2026-04-26 06:42 -19.68466 19.28859 38190 ft 487 kts 210°
2026-04-26 06:42 -19.73902 19.25771 38194 ft 486 kts 210°
2026-04-26 06:43 -19.79871 19.22377 38200 ft 486 kts 210°
2026-04-26 06:43 -19.85840 19.18980 38193 ft 487 kts 210°
2026-04-26 06:44 -19.91806 19.15582 38197 ft 487 kts 210°
2026-04-26 06:44 -19.97773 19.12180 38199 ft 487 kts 211°
2026-04-26 06:45 -20.03743 19.08774 38203 ft 487 kts 211°
2026-04-26 06:45 -20.09703 19.05370 38200 ft 487 kts 211°
2026-04-26 06:46 -20.15670 19.01960 38199 ft 486 kts 211°
2026-04-26 06:46 -20.21592 18.98572 38197 ft 486 kts 211°
2026-04-26 06:47 -20.27552 18.95160 38201 ft 486 kts 211°
2026-04-26 06:47 -20.33507 18.91747 38200 ft 486 kts 211°
2026-04-26 06:48 -20.39463 18.88332 38207 ft 486 kts 211°
2026-04-26 06:48 -20.45417 18.84915 38203 ft 486 kts 211°
2026-04-26 06:49 -20.51365 18.81496 38207 ft 485 kts 211°
2026-04-26 06:49 -20.57303 18.78081 38205 ft 485 kts 211°
2026-04-26 06:50 -20.63246 18.74660 38202 ft 484 kts 211°
2026-04-26 06:50 -20.69129 18.71270 38207 ft 484 kts 211°
2026-04-26 06:51 -20.75054 18.67854 38211 ft 484 kts 211°
2026-04-26 06:51 -20.83934 18.62727 38207 ft 483 kts 212°
2026-04-26 06:52 -20.89846 18.59310 38210 ft 483 kts 212°
2026-04-26 06:52 -20.95750 18.55896 38107 ft 483 kts 212°
2026-04-26 06:53 -20.98703 18.54186 37860 ft 482 kts 212°
2026-04-26 06:53 -21.01653 18.52478 37596 ft 482 kts 212°
2026-04-26 06:53 -21.04603 18.50768 37335 ft 483 kts 212°
2026-04-26 06:53 -21.07551 18.49060 36887 ft 480 kts 212°
2026-04-26 06:54 -21.10480 18.47362 36275 ft 479 kts 212°
2026-04-26 06:54 -21.13405 18.45664 35627 ft 479 kts 212°
2026-04-26 06:54 -21.16335 18.43962 34961 ft 480 kts 212°
2026-04-26 06:54 -21.19278 18.42252 34247 ft 482 kts 212°
2026-04-26 06:55 -21.22228 18.40536 33405 ft 484 kts 211°
2026-04-26 06:55 -21.25200 18.38808 32610 ft 486 kts 211°
2026-04-26 06:55 -21.28177 18.37076 31824 ft 488 kts 211°
2026-04-26 06:55 -21.31167 18.35337 30993 ft 490 kts 211°
2026-04-26 06:56 -21.34159 18.33595 30134 ft 492 kts 211°
2026-04-26 06:56 -21.37177 18.31837 29283 ft 492 kts 211°
2026-04-26 06:56 -21.40125 18.30120 28626 ft 487 kts 211°
2026-04-26 06:56 -21.43129 18.28369 27978 ft 482 kts 211°
2026-04-26 06:57 -21.46018 18.26683 27364 ft 477 kts 210°
2026-04-26 06:57 -21.48956 18.24972 26726 ft 472 kts 210°
2026-04-26 06:57 -21.51830 18.23297 26116 ft 468 kts 210°
2026-04-26 06:57 -21.54676 18.21634 25507 ft 463 kts 210°
2026-04-26 06:58 -21.57458 18.20007 24911 ft 459 kts 210°
2026-04-26 06:58 -21.60280 18.18353 24316 ft 454 kts 210°
2026-04-26 06:58 -21.63000 18.16754 23752 ft 449 kts 209°
2026-04-26 06:58 -21.65731 18.15158 23063 ft 444 kts 209°
2026-04-26 06:59 -21.68469 18.13560 22369 ft 440 kts 209°
2026-04-26 06:59 -21.71141 18.12001 21764 ft 434 kts 209°
2026-04-26 06:59 -21.73748 18.10479 21179 ft 429 kts 209°
2026-04-26 06:59 -21.76384 18.08937 20606 ft 424 kts 209°
2026-04-26 07:00 -21.78932 18.07445 20028 ft 420 kts 209°
2026-04-26 07:00 -21.81494 18.05944 19451 ft 417 kts 209°
2026-04-26 07:00 -21.84027 18.04458 18872 ft 414 kts 209°
2026-04-26 07:00 -21.86504 18.02887 18231 ft 411 kts 213°
2026-04-26 07:01 -21.88885 18.01207 17626 ft 408 kts 214°
2026-04-26 07:01 -21.91244 17.99538 17022 ft 404 kts 214°
2026-04-26 07:01 -21.93586 17.97899 16446 ft 401 kts 214°
2026-04-26 07:01 -21.95921 17.96277 15861 ft 398 kts 214°
2026-04-26 07:02 -21.98245 17.94671 15272 ft 396 kts 214°
2026-04-26 07:02 -22.00561 17.93074 14687 ft 394 kts 214°
2026-04-26 07:02 -22.02870 17.91481 14103 ft 394 kts 214°
2026-04-26 07:02 -22.05172 17.89893 13443 ft 393 kts 214°
2026-04-26 07:03 -22.07464 17.88312 12850 ft 389 kts 214°
2026-04-26 07:03 -22.09739 17.86743 12272 ft 386 kts 214°
2026-04-26 07:03 -22.11994 17.85190 11678 ft 383 kts 214°
2026-04-26 07:03 -22.14209 17.83662 11451 ft 370 kts 214°
2026-04-26 07:04 -22.16332 17.82200 11343 ft 354 kts 214°
2026-04-26 07:04 -22.18363 17.80802 11248 ft 339 kts 214°
2026-04-26 07:04 -22.20306 17.79462 11107 ft 326 kts 214°
2026-04-26 07:04 -22.22179 17.78168 10970 ft 314 kts 214°
2026-04-26 07:05 -22.23985 17.76918 10830 ft 303 kts 214°
2026-04-26 07:05 -22.25726 17.75712 10704 ft 293 kts 214°
2026-04-26 07:05 -22.27435 17.74527 10375 ft 291 kts 214°
2026-04-26 07:05 -22.29115 17.73366 10058 ft 291 kts 214°
2026-04-26 07:06 -22.30842 17.72170 9718 ft 298 kts 214°
2026-04-26 07:06 -22.32562 17.70985 9592 ft 287 kts 214°
2026-04-26 07:06 -22.34230 17.69829 9485 ft 275 kts 214°
2026-04-26 07:06 -22.35807 17.68744 9393 ft 264 kts 214°
2026-04-26 07:07 -22.37310 17.67712 9308 ft 254 kts 215°
2026-04-26 07:07 -22.38704 17.66639 9237 ft 240 kts 223°
2026-04-26 07:07 -22.39696 17.65243 9082 ft 231 kts 244°
2026-04-26 07:07 -22.40378 17.63693 8957 ft 226 kts 252°
2026-04-26 07:08 -22.40485 17.62024 8894 ft 223 kts 283°
2026-04-26 07:08 -22.39829 17.60565 8763 ft 215 kts 311°
2026-04-26 07:08 -22.38600 17.59692 8649 ft 215 kts 341°
2026-04-26 07:08 -22.37141 17.59630 8520 ft 205 kts 11°
2026-04-26 07:09 -22.35952 17.60395 8460 ft 203 kts 40°
2026-04-26 07:09 -22.35294 17.61754 8333 ft 210 kts 71°
2026-04-26 07:09 -22.35379 17.63343 8209 ft 218 kts 102°
2026-04-26 07:09 -22.36207 17.64740 8095 ft 224 kts 131°
2026-04-26 07:10 -22.40214 17.64513 7995 ft 213 kts 239°
2026-04-26 07:11 -22.41301 17.61651 8003 ft 204 kts 252°
2026-04-26 07:11 -22.41914 17.60268 7808 ft 204 kts 246°
2026-04-26 07:11 -22.42554 17.58941 7564 ft 192 kts 248°
2026-04-26 07:11 -22.43115 17.57709 7325 ft 174 kts 249°
2026-04-26 07:12 -22.43631 17.56573 7139 ft 164 kts 249°
2026-04-26 07:12 -22.44135 17.55480 6926 ft 161 kts 249°
2026-04-26 07:12 -22.44629 17.54401 6735 ft 160 kts 249°
2026-04-26 07:12 -22.45126 17.53316 6506 ft 162 kts 250°
2026-04-26 07:13 -22.45621 17.52235 6307 ft 159 kts 244°
2026-04-26 07:13 -22.46112 17.51153 6008 ft 160 kts 246°
2026-04-26 07:13 -22.46591 17.50084 5757 ft 157 kts 244°
2026-04-26 07:13 -22.47088 17.49035 5604 ft 157 kts 243°
2026-04-26 07:14 -22.47591 17.47987 5557 ft 156 kts 247°
2026-04-26 07:14 -22.47919 17.47247 5566 ft 51 kts 242°
2026-04-26 07:14 -22.48053 17.46955 5569 ft 4 kts 244°
2026-04-26 07:14 -22.48080 17.46895 5568 ft 30 kts 244°
2026-04-26 07:15 -22.48186 17.46662 5568 ft 35 kts 244°
2026-04-26 07:15 -22.48293 17.46428 5569 ft 33 kts 243°
2026-04-26 07:15 -22.48359 17.46296 5572 ft 0 kts 226°
2026-04-26 07:15 -22.48372 17.46287 5572 ft 3 kts 208°
2026-04-26 07:16 -22.48390 17.46282 5570 ft 1 kts 177°
2026-04-26 07:16 -22.48412 17.46296 5572 ft 10 kts 152°
2026-04-26 07:16 -22.48453 17.46319 5572 ft 2 kts 152°
2026-04-26 07:16 -22.48458 17.46323 5571 ft 0 kts 151°
2026-04-26 07:17 -22.48469 17.46329 5573 ft 2 kts 152°
2026-04-26 07:17 -22.48474 17.46331 5573 ft 0 kts 161°
2026-04-26 07:18 -22.48476 17.46331 5573 ft 1 kts 161°
2026-04-26 07:18 -22.48498 17.46343 5572 ft 5 kts 142°
2026-04-26 07:18 -22.48538 17.46390 5571 ft 12 kts 131°
2026-04-26 07:19 -22.48548 17.46395 5573 ft 0 kts 164°
2026-04-26 07:19 -22.48551 17.46394 5574 ft 0 kts 181°
2026-04-26 07:19 -22.48553 17.46392 5571 ft 1 kts 195°
2026-04-26 07:19 -22.48564 17.46385 5572 ft 1 kts 225°
2026-04-26 07:20 -22.48565 17.46380 5573 ft 1 kts 241°
2026-04-26 07:20 -22.48566 17.46370 5572 ft 1 kts 263°
2026-04-26 07:20 -22.48566 17.46363 5573 ft 0 kts 271°
2026-04-26 07:20 -22.48564 17.46345 5573 ft 2 kts 286°
2026-04-26 07:21 -22.48562 17.46341 5572 ft 0 kts 295°
2026-04-26 07:37 -22.48562 17.46342 5575 ft 0 kts 295°
2026-04-26 08:32 -22.48562 17.46343 5575 ft 0 kts 295°
2026-04-26 08:48 -22.48563 17.46343 5572 ft 0 kts 295°
2026-04-26 08:51 -22.48563 17.46344 5572 ft 0 kts 295°
2026-04-26 09:08 -22.48563 17.46345 5575 ft 0 kts 295°
2026-04-26 09:27 -22.48563 17.46346 5575 ft 0 kts 295°
2026-04-26 09:29 -22.48564 17.46346 5575 ft 0 kts 295°
2026-04-26 09:46 -22.48564 17.46347 5575 ft 0 kts 295°
2026-04-26 10:04 -22.48564 17.46348 5575 ft 0 kts 295°
2026-04-26 10:10 -22.48565 17.46348 5575 ft 0 kts 295°
2026-04-26 10:22 -22.48565 17.46349 5575 ft 0 kts 295°
2026-04-26 10:41 -22.48565 17.46350 5574 ft 0 kts 295°
2026-04-26 10:54 -22.48566 17.46350 5574 ft 0 kts 295°
2026-04-26 11:01 -22.48566 17.46351 5574 ft 0 kts 295°
2026-04-26 11:22 -22.48566 17.46352 5629 ft 0 kts 295°
2026-04-26 11:42 -22.48567 17.46352 5574 ft 0 kts 295°
2026-04-26 11:43 -22.48567 17.46353 5574 ft 0 kts 295°
2026-04-26 12:05 -22.48567 17.46354 5574 ft 0 kts 295°
2026-04-26 12:29 -22.48567 17.46355 5574 ft 0 kts 295°
2026-04-26 12:33 -22.48568 17.46355 5574 ft 0 kts 295°
2026-04-26 13:00 -22.48568 17.46356 5574 ft 0 kts 295°
2026-04-26 13:30 -22.48568 17.46357 5602 ft 0 kts 295°
2026-04-26 13:40 -22.48569 17.46357 5574 ft 0 kts 295°
2026-04-26 13:56 -22.48569 17.46358 5574 ft 0 kts 295°
2026-04-26 14:22 -22.48569 17.46359 5574 ft 0 kts 295°